This is the latest recevied weather packets stored in our database for station/object M0TUM-1. If no packets are shown the sender has not sent any weather packets the latest 10 day(s).
| Time | Temp. | Humidity | Pressure | Rain* | Wind** | Luminosity | Snow |
|---|---|---|---|---|---|---|---|
| 1778094548 | 9.44° C | 79% | 1014.3 hPa | 0 mm | - | 3 W/m² | - |
| 1778094244 | 9.44° C | 79% | 1014.1 hPa | 0 mm | - | 5 W/m² | - |
| 1778093942 | 9.44° C | 79% | 1014.3 hPa | 0 mm | - | 8 W/m² | - |
| 1778093639 | 9.44° C | 79% | 1014.2 hPa | 0 mm | - | 9 W/m² | - |
| 1778093336 | 9.44° C | 79% | 1013.9 hPa | 0 mm | - | 10 W/m² | - |
| 1778093033 | 9.44° C | 79% | 1014.1 hPa | 0 mm | - | 10 W/m² | - |
| 1778092730 | 9.44° C | 79% | 1013.9 hPa | 0 mm | - | 10 W/m² | - |
| 1778092425 | 9.44° C | 79% | 1014.1 hPa | 0 mm | - | 10 W/m² | - |
| 1778092123 | 9.44° C | 79% | 1013.9 hPa | 0 mm | - | 12 W/m² | - |
| 1778091820 | 9.44° C | 79% | 1014 hPa | 0 mm | - | 19 W/m² | - |
| 1778091517 | 9.44° C | 79% | 1013.9 hPa | 0 mm | - | 21 W/m² | - |
| 1778091215 | 9.44° C | 79% | 1013.9 hPa | 0 mm | - | 26 W/m² | - |
| 1778090912 | 10° C | 79% | 1013.8 hPa | 0 mm | - | 29 W/m² | - |
| 1778090608 | 10° C | 79% | 1013.7 hPa | 0 mm | - | 32 W/m² | - |
| 1778090304 | 10° C | 79% | 1013.7 hPa | 0 mm | - | 34 W/m² | - |
| 1778090001 | 10° C | 79% | 1013.5 hPa | 0 mm | - | 40 W/m² | - |
| 1778089698 | 10° C | 79% | 1013.5 hPa | 0 mm | - | 43 W/m² | - |
| 1778089396 | 10° C | 79% | 1013.5 hPa | 0 mm | - | 63 W/m² | - |
| 1778089093 | 10° C | 79% | 1013.3 hPa | 0 mm | - | 68 W/m² | - |
| 1778088790 | 10° C | 79% | 1013.4 hPa | 0 mm | - | 84 W/m² | - |
| 1778088487 | 10° C | 79% | 1013.4 hPa | 0 mm | - | 91 W/m² | - |
| 1778088183 | 10° C | 79% | 1013.3 hPa | 0 mm | - | 97 W/m² | - |
| 1778087881 | 10.56° C | 79% | 1013.1 hPa | 0 mm | - | 113 W/m² | - |
| 1778087578 | 10° C | 79% | 1013.3 hPa | 0 mm | - | 108 W/m² | - |
| 1778087275 | 10.56° C | 79% | 1013.1 hPa | 0 mm | - | 90 W/m² | - |
* Rain latest hour (hover to see other rain measurements)
** Current wind speed in m/s (hover to see current wind gust speed)